When you browse on this site, cookies collect data to enhance your experience and personalize the content and advertising you see.
Visit our Privacy Policy to learn more. By continuing to use the site, you agree to this use of cookies and data.
  • En España
  • Lista de países
  • Para 7 días
  • Temperatura del agua
  • Mapa Satelital
  • El tiempo en el mapa
  • Informadores
  • user-avatar
    Iniciar sesión

    Tiempo cada hora Shmygalovka

    Hoy, 18 Junio, Martes

    Tiempo Temperatura Precipitaciones Viento Presión Humedad
    00:00 +17°C° 0 mm 2 mps 744 mmHg 87%
    01:00 +17°C° 0 mm 2 mps 743 mmHg 89%
    02:00 +17°C° 0 mm 2 mps 743 mmHg 87%
    03:00 +17°C° 0.2 mm 2 mps 743 mmHg 88%
    04:00 +17°C° 0.2 mm 2 mps 743 mmHg 89%
    05:00 +18°C° 0.2 mm 2 mps 743 mmHg 89%
    06:00 +19°C° 0.9 mm 2 mps 743 mmHg 87%
    07:00 +20°C° 0.9 mm 2 mps 743 mmHg 85%
    08:00 +21°C° 0.9 mm 2 mps 743 mmHg 83%
    09:00 +23°C° 1.1 mm 2 mps 743 mmHg 79%
    10:00 +25°C° 1.1 mm 2 mps 743 mmHg 74%
    11:00 +26°C° 1.1 mm 2 mps 743 mmHg 69%
    12:00 +26°C° 0.3 mm 3 mps 743 mmHg 69%
    13:00 +26°C° 0.3 mm 3 mps 742 mmHg 69%
    14:00 +26°C° 0.3 mm 4 mps 742 mmHg 69%
    15:00 +26°C° 0.5 mm 3 mps 742 mmHg 72%
    16:00 +25°C° 0.5 mm 3 mps 742 mmHg 75%
    17:00 +25°C° 0.5 mm 3 mps 742 mmHg 78%
    18:00 +22°C° 0.2 mm 3 mps 742 mmHg 80%
    19:00 +21°C° 0.2 mm 3 mps 743 mmHg 83%
    20:00 +19°C° 0.2 mm 2 mps 743 mmHg 86%
    21:00 +18°C° 0 mm 2 mps 743 mmHg 87%
    22:00 +18°C° 0 mm 2 mps 743 mmHg 88%
    23:00 +17°C° 0 mm 3 mps 743 mmHg 89%

    Mañana, 19 Junio, Miércoles

    Tiempo Temperatura Precipitaciones Viento Presión Humedad
    00:00 +16°C° 0 mm 3 mps 744 mmHg 89%
    01:00 +16°C° 0 mm 3 mps 744 mmHg 90%
    02:00 +14°C° 0 mm 3 mps 744 mmHg 91%
    03:00 +16°C° 0 mm 3 mps 744 mmHg 90%
    04:00 +16°C° 0 mm 2 mps 744 mmHg 89%
    05:00 +16°C° 0 mm 2 mps 745 mmHg 88%
    06:00 +18°C° 0 mm 3 mps 745 mmHg 83%
    07:00 +19°C° 0 mm 3 mps 745 mmHg 78%
    08:00 +21°C° 0 mm 3 mps 745 mmHg 73%
    09:00 +22°C° 0 mm 3 mps 745 mmHg 67%
    10:00 +24°C° 0 mm 3 mps 745 mmHg 62%
    11:00 +25°C° 0 mm 3 mps 745 mmHg 56%
    12:00 +25°C° 0 mm 3 mps 745 mmHg 55%
    13:00 +26°C° 0 mm 3 mps 745 mmHg 55%
    14:00 +26°C° 0 mm 3 mps 745 mmHg 54%
    15:00 +26°C° 0 mm 2 mps 745 mmHg 58%
    16:00 +26°C° 0 mm 2 mps 745 mmHg 61%
    17:00 +26°C° 0 mm 2 mps 745 mmHg 64%
    18:00 +24°C° 0 mm 1 mps 745 mmHg 69%
    19:00 +22°C° 0 mm 1 mps 745 mmHg 73%
    20:00 +20°C° 0 mm 1 mps 745 mmHg 78%
    21:00 +19°C° 0 mm 1 mps 745 mmHg 79%
    22:00 +19°C° 0 mm 1 mps 746 mmHg 80%
    23:00 +18°C° 0 mm 1 mps 746 mmHg 81%

    Pasado mañana, 20 Junio, Jueves

    Tiempo Temperatura Precipitaciones Viento Presión Humedad
    00:00 +18°C° 0 mm 1 mps 746 mmHg 82%
    01:00 +16°C° 0 mm 1 mps 746 mmHg 82%
    02:00 +16°C° 0 mm 1 mps 746 mmHg 83%
    03:00 +18°C° 0 mm 1 mps 746 mmHg 83%
    04:00 +18°C° 0 mm 1 mps 746 mmHg 82%
    05:00 +19°C° 0 mm 1 mps 747 mmHg 82%
    06:00 +21°C° 0 mm 1 mps 747 mmHg 77%
    07:00 +20°C° 0 mm 0 mps 747 mmHg 73%
    08:00 +22°C° 0 mm 0 mps 747 mmHg 68%
    09:00 +23°C° 0 mm 0 mps 747 mmHg 63%
    10:00 +24°C° 0 mm 0 mps 747 mmHg 58%
    11:00 +25°C° 0 mm 0 mps 747 mmHg 53%
    12:00 +26°C° 0 mm 0 mps 747 mmHg 52%
    13:00 +26°C° 0 mm 0 mps 746 mmHg 50%
    14:00 +26°C° 0 mm 0 mps 746 mmHg 49%
    15:00 +26°C° 0 mm 0 mps 746 mmHg 52%
    16:00 +26°C° 0 mm 0 mps 746 mmHg 56%
    17:00 +26°C° 0 mm 0 mps 746 mmHg 60%
    18:00 +26°C° 0 mm 1 mps 746 mmHg 63%
    19:00 +23°C° 0 mm 1 mps 746 mmHg 66%
    20:00 +21°C° 0 mm 1 mps 746 mmHg 68%
    21:00 +21°C° 0 mm 1 mps 746 mmHg 72%
    22:00 +20°C° 0 mm 1 mps 746 mmHg 75%
    23:00 +19°C° 0 mm 1 mps 746 mmHg 79%

    21 Junio, Viernes

    Tiempo Temperatura Precipitaciones Viento Presión Humedad
    00:00 +19°C° 0 mm 1 mps 747 mmHg 80%
    01:00 +19°C° 0 mm 1 mps 747 mmHg 82%
    02:00 +18°C° 0 mm 1 mps 747 mmHg 83%
    03:00 +19°C° 0 mm 1 mps 747 mmHg 83%
    04:00 +20°C° 0 mm 1 mps 747 mmHg 83%
    05:00 +20°C° 0 mm 1 mps 747 mmHg 83%
    06:00 +22°C° 0 mm 1 mps 747 mmHg 78%
    07:00 +23°C° 0 mm 1 mps 747 mmHg 73%
    08:00 +25°C° 0 mm 2 mps 747 mmHg 68%
    09:00 +25°C° 0 mm 2 mps 747 mmHg 64%
    10:00 +26°C° 0 mm 2 mps 747 mmHg 60%
    11:00 +27°C° 0 mm 2 mps 747 mmHg 56%
    12:00 +27°C° 0 mm 2 mps 747 mmHg 56%
    13:00 +27°C° 0 mm 2 mps 747 mmHg 56%
    14:00 +28°C° 0 mm 2 mps 747 mmHg 56%
    15:00 +27°C° 0 mm 2 mps 747 mmHg 60%
    16:00 +27°C° 0 mm 2 mps 746 mmHg 64%
    17:00 +27°C° 0 mm 2 mps 746 mmHg 68%
    18:00 +25°C° 0 mm 2 mps 746 mmHg 71%
    19:00 +24°C° 0 mm 2 mps 746 mmHg 74%
    20:00 +21°C° 0 mm 2 mps 746 mmHg 78%
    21:00 +20°C° 0 mm 2 mps 746 mmHg 79%
    22:00 +20°C° 0 mm 2 mps 747 mmHg 80%
    23:00 +19°C° 0 mm 2 mps 747 mmHg 82%

    22 Junio, Sábado

    Tiempo Temperatura Precipitaciones Viento Presión Humedad
    00:00 +19°C° 0 mm 2 mps 747 mmHg 83%
    01:00 +18°C° 0 mm 2 mps 747 mmHg 83%
    02:00 +18°C° 0 mm 2 mps 746 mmHg 84%
    03:00 +18°C° 0 mm 2 mps 747 mmHg 84%
    04:00 +19°C° 0 mm 2 mps 747 mmHg 84%
    05:00 +19°C° 0 mm 2 mps 747 mmHg 83%
    06:00 +21°C° 0 mm 3 mps 747 mmHg 80%
    07:00 +22°C° 0 mm 3 mps 747 mmHg 77%
    08:00 +25°C° 0 mm 3 mps 747 mmHg 74%
    09:00 +26°C° 0 mm 4 mps 747 mmHg 70%
    10:00 +27°C° 0 mm 4 mps 747 mmHg 65%
    11:00 +28°C° 0 mm 4 mps 747 mmHg 60%
    12:00 +28°C° 0 mm 4 mps 746 mmHg 60%
    13:00 +28°C° 0 mm 4 mps 746 mmHg 60%
    14:00 +29°C° 0 mm 5 mps 746 mmHg 60%
    15:00 +28°C° 0 mm 4 mps 746 mmHg 65%
    16:00 +28°C° 0 mm 4 mps 746 mmHg 69%
    17:00 +28°C° 0 mm 3 mps 745 mmHg 73%
    18:00 +26°C° 0 mm 3 mps 746 mmHg 77%
    19:00 +25°C° 0 mm 3 mps 746 mmHg 81%
    20:00 +22°C° 0 mm 3 mps 746 mmHg 85%
    21:00 +22°C° 0 mm 3 mps 746 mmHg 86%
    22:00 +21°C° 0 mm 3 mps 746 mmHg 88%
    23:00 +20°C° 0 mm 3 mps 746 mmHg 89%

    23 Junio, Domingo

    Tiempo Temperatura Precipitaciones Viento Presión Humedad
    00:00 +20°C° 0 mm 3 mps 746 mmHg 90%
    01:00 +20°C° 0 mm 3 mps 746 mmHg 91%
    02:00 +19°C° 0 mm 3 mps 746 mmHg 93%
    03:00 +20°C° 0 mm 3 mps 746 mmHg 92%
    04:00 +20°C° 0 mm 2 mps 746 mmHg 91%
    05:00 +21°C° 0 mm 2 mps 746 mmHg 90%
    06:00 +23°C° 0 mm 2 mps 746 mmHg 84%
    07:00 +25°C° 0 mm 3 mps 746 mmHg 78%
    08:00 +27°C° 0 mm 3 mps 747 mmHg 72%
    09:00 +28°C° 0.1 mm 3 mps 747 mmHg 68%
    10:00 +29°C° 0.1 mm 3 mps 747 mmHg 63%
    11:00 +29°C° 0.1 mm 3 mps 747 mmHg 59%
    12:00 +30°C° 0 mm 4 mps 746 mmHg 58%
    13:00 +30°C° 0 mm 4 mps 746 mmHg 58%
    14:00 +30°C° 0 mm 4 mps 746 mmHg 57%
    15:00 +30°C° 0 mm 3 mps 746 mmHg 62%
    16:00 +29°C° 0 mm 3 mps 746 mmHg 66%
    17:00 +29°C° 0 mm 2 mps 746 mmHg 71%
    18:00 +27°C° 0 mm 2 mps 746 mmHg 74%
    19:00 +26°C° 0 mm 2 mps 746 mmHg 76%
    20:00 +24°C° 0 mm 2 mps 746 mmHg 79%
    21:00 +23°C° 0 mm 2 mps 746 mmHg 80%
    22:00 +23°C° 0 mm 2 mps 746 mmHg 81%
    23:00 +21°C° 0 mm 2 mps 746 mmHg 81%
    Mostrar más